This demonstration page uses our WeatherBlox Daily Observations layout. Learn more.

Left ArrowRight Arrow

Hourly Observations for January 11, 2022

Temp ( °F °C ) Dew Point ( °F °C ) Humidity (%) Winds ( mph kmh ) Pressure ( in mb ) Visibility ( mi km ) Precip ( " mm )
12:53 am 00:53 Clear 36 2.2 24 -4.4 62 62 SW 20 31 30.19 1022 10 16 0.00 0.00
1:53 am 01:53 Clear 36 2.2 24 -4.4 62 62 SW 16 26 30.18 1022 10 16 0.00 0.00
2:53 am 02:53 Clear 37 2.8 24 -4.4 59 59 SW 23 37 30.19 1023 10 16 0.00 0.00
3:53 am 03:53 Clear 33 0.6 23 -5 66 66 SW 22 35 30.20 1023 10 16 0.00 0.00
4:53 am 04:53 Clear 34 1.1 24 -4.4 67 67 SW 25 41 30.20 1023 10 16 0.00 0.00
5:53 am 05:53 Clear 37 2.8 25 -3.9 62 62 SW 24 39 30.19 1022 10 16 0.00 0.00
6:53 am 06:53 Cloudy 37 2.8 26 -3.3 65 65 SW 22 35 30.19 1022 10 16 0.00 0.00
7:53 am 07:53 Cloudy 37 2.8 26 -3.3 65 65 SW 24 39 30.15 1021 10 16 0.00 0.00
8:53 am 08:53 Cloudy 38 3.3 26 -3.3 62 62 SW 26 43 30.11 1020 10 16 0.00 0.00
9:53 am 09:53 Partly Cloudy 37 2.8 27 -2.8 67 67 SW 23 37 30.11 1020 10 16 0.00 0.00
10:53 am 10:53 Mostly Sunny 39 3.9 27 -2.8 62 62 SW 29 46 30.07 1018 10 16 0.00 0.00
11:53 am 11:53 Sunny 40 4.4 26 -3.3 58 58 SW 26 43 30.06 1018 10 16 0.00 0.00
12:53 pm 12:53 Mostly Sunny 40 4.4 27 -2.8 60 60 SW 22 35 30.07 1018 10 16 0.00 0.00
1:53 pm 13:53 Sunny 40 4.4 28 -2.2 63 63 SW 16 26 30.06 1018 10 16 0.00 0.00
2:53 pm 14:53 Sunny 40 4.4 28 -2.2 63 63 SW 24 39 30.01 1016 10 16 0.00 0.00
3:53 pm 15:53 Sunny 38 3.3 30 -1.1 73 73 SW 18 30 30.01 1016 10 16 0.00 0.00
4:53 pm 16:53 Clear 40 4.4 30 -1.1 68 68 SW 24 39 30.00 1016 10 16 0.00 0.00
5:53 pm 17:53 Clear 39 3.9 31 -0.6 73 73 SW 23 37 30.01 1016 10 16 0.00 0.00
6:53 pm 18:53 Clear 41 5 31 -0.6 67 67 SW 24 39 30.02 1017 10 16 0.00 0.00
7:53 pm 19:53 Clear 38 3.3 31 -0.6 76 76 SW 18 30 30.04 1017 10 16 0.00 0.00
8:53 pm 20:53 Clear 39 3.9 31 -0.6 73 73 SSW 20 31 30.05 1018 10 16 0.00 0.00
9:53 pm 21:53 Clear 39 3.9 31 -0.6 73 73 SW 20 31 30.05 1018 10 16 0.00 0.00
10:53 pm 22:53 Clear 38 3.3 31 -0.6 76 76 SW 14 22 30.05 1018 10 16 0.00 0.00
11:53 pm 23:53 Clear 38 3.3 31 -0.6 76 76 SW 18 30 30.04 1017 10 16 0.00 0.00

Powered by AerisWeather